Powrót do katalogu

GONETS D1 5

AktywnyŁącznośćPO
NORAD 24729·PAYLOAD·🇷🇺 Russia

Wystrzelony Feb 14, 1997 z Plesetsk Cosmodrome

Loading…

Następne Przeloty (najbliższe 24 godziny)

TLE

ŚwieżeSource: Space-Track

Epoka: Sep 14, 2026, 06:50 UTC

1 24729U 97006E   26257.28524329  .00000027  00000-0  90203-4 0  9990
2 24729  82.6024 185.8065 0005465  54.6990  99.4847 12.62988166363703

Śledź GONETS D1 5 w czasie rzeczywistym z AllMySat

Download on the App Store